Regional Weather Roundup
Issued by NWS

Home | Current Version | Previous Version | Text Only | Print | Product List | Glossary On
Versions: 1 2 3 4 5 6 7 8 9 10 11 12 13 14 15 16 17 18 19 20 21 22 23 24 25 26 27 28 29 30 31 32 33 34 35 36 37 38 39 40 41 42 43 44 45 46 47 48 49 50
000
ASUS44 KOUN 260310
RWROK

WEATHER ROUNDUP FOR OKLAHOMA
NATIONAL WEATHER SERVICE NORMAN OK
1000 PM CDT FRI JUL 25 2014

NOTE: "FAIR" INDICATES FEW OR NO CLOUDS BELOW 12,000 FEET WITH NO
      SIGNIFICANT WEATHER AND/OR OBSTRUCTIONS TO VISIBILITY.

OKZ001>007-009>012-014-015-017-260400-
NORTHWEST OKLAHOMA AND THE PANHANDLE

CITY           SKY/WX    TMP DP  RH WIND       PRES   REMARKS
GAGE           CLEAR     88  53  30 S17       29.87R
ENID/WOODRING  CLEAR     81  64  57 S8        29.84R
$$

OKZ016-021>023-033>039-044-045-260400-
SOUTHWEST OKLAHOMA

CITY           SKY/WX    TMP DP  RH WIND       PRES   REMARKS
LAWTON/REGL    CLEAR     89  63  41 S12       29.89R HX  90
LAWTON/FT SILL CLEAR     89  65  44 S14       29.89R HX  90
FREDERICK      CLEAR     85  58  39 SE10      29.87R
CLINTON        CLEAR     89  54  30 S14       29.91R
HOBART         CLEAR     88  58  36 S16       29.89R
ALTUS AFB      CLEAR     82  61  49 SE13      29.88R
$$

OKZ018>020-024>031-260400-
CENTRAL OKLAHOMA

CITY           SKY/WX    TMP DP  RH WIND       PRES   REMARKS
OKLAHOMA CITY  PTCLDY    85  62  46 S12       29.89R
OKC/WILEY POST CLEAR     87  62  43 S17       29.88R
OKC/TINKER AFB CLEAR     83  65  53 S16       29.89R
STILLWATER     CLEAR     85  72  65 S14       29.87R HX  91
GUTHRIE        CLEAR     86  67  52 S9        29.87R
$$

OKZ008-013-054>072-260400-
NORTHEAST OKLAHOMA

CITY           SKY/WX    TMP DP  RH WIND       PRES   REMARKS
TULSA          CLEAR     86  73  65 S10       29.88R HX  93
TULSA/JONES    CLEAR     85  73  67 S6        29.89R HX  91
PONCA CITY     CLEAR     87  72  60 S16G24    29.84R HX  93
BARTLESVILLE   CLEAR     83  72  69 S7        29.88R
MUSKOGEE       CLEAR     80  73  79 S7        29.92R
$$

OKZ032-040>043-046>053-073>077-260400-
SOUTH CENTRAL/SOUTHEAST OKLAHOMA

CITY           SKY/WX    TMP DP  RH WIND       PRES   REMARKS
ARDMORE/DWNTWN CLEAR     82  68  61 CALM      29.92R
MCALESTER      CLEAR     83  73  72 SE7       29.94R
$$




USA.gov is the U.S. government's official web portal to all federal, state and local government web resources and services.